When you browse on this site, cookies collect data to enhance your experience and personalize the content and advertising you see.
Visit our Privacy Policy to learn more. By continuing to use the site, you agree to this use of cookies and data.
  • In United Kingdom
  • List of Countries
  • For 7 days
  • Water Temperature
  • Satellite Maps
  • Weather Map
  • Weather Widgets
  • user-avatar
    Login

    Hourly Weather Wlora

    Today, 20 April, Saturday

    Time Temperature Precipitation Wind Pressure Humidity
    00:00 +12°C° 0 mm 4 mps 768 mmHg 82%
    01:00 +12°C° 0 mm 4 mps 768 mmHg 81%
    02:00 +12°C° 0 mm 4 mps 767 mmHg 80%
    03:00 +12°C° 0 mm 4 mps 767 mmHg 80%
    04:00 +12°C° 0 mm 4 mps 767 mmHg 79%
    05:00 +13°C° 0 mm 3 mps 767 mmHg 76%
    06:00 +14°C° 0 mm 3 mps 767 mmHg 74%
    07:00 +16°C° 0 mm 3 mps 766 mmHg 71%
    08:00 +18°C° 0 mm 4 mps 767 mmHg 66%
    09:00 +19°C° 0 mm 4 mps 767 mmHg 61%
    10:00 +20°C° 0 mm 4 mps 767 mmHg 56%
    11:00 +21°C° 0 mm 5 mps 767 mmHg 56%
    12:00 +21°C° 0 mm 6 mps 767 mmHg 57%
    13:00 +22°C° 0 mm 6 mps 766 mmHg 57%
    14:00 +21°C° 0 mm 6 mps 766 mmHg 59%
    15:00 +21°C° 0 mm 6 mps 766 mmHg 60%
    16:00 +20°C° 0 mm 6 mps 766 mmHg 62%
    17:00 +19°C° 0 mm 6 mps 766 mmHg 68%
    18:00 +16°C° 0 mm 5 mps 766 mmHg 74%
    19:00 +15°C° 0 mm 4 mps 766 mmHg 80%
    20:00 +15°C° 0 mm 4 mps 767 mmHg 77%
    21:00 +16°C° 0 mm 3 mps 767 mmHg 75%
    22:00 +14°C° 0 mm 3 mps 767 mmHg 73%
    23:00 +16°C° 0 mm 3 mps 767 mmHg 74%

    Tomorrow, 21 April, Sunday

    Time Temperature Precipitation Wind Pressure Humidity
    00:00 +16°C° 0 mm 3 mps 767 mmHg 76%
    01:00 +16°C° 0 mm 3 mps 767 mmHg 77%
    02:00 +15°C° 0 mm 4 mps 767 mmHg 82%
    03:00 +14°C° 0 mm 6 mps 767 mmHg 87%
    04:00 +14°C° 0 mm 7 mps 767 mmHg 92%
    05:00 +14°C° 0 mm 7 mps 767 mmHg 90%
    06:00 +14°C° 0 mm 7 mps 767 mmHg 88%
    07:00 +15°C° 0 mm 8 mps 767 mmHg 86%
    08:00 +16°C° 0 mm 8 mps 767 mmHg 84%
    09:00 +16°C° 0 mm 8 mps 767 mmHg 83%
    10:00 +17°C° 0 mm 8 mps 767 mmHg 81%
    11:00 +17°C° 0 mm 7 mps 767 mmHg 82%
    12:00 +18°C° 0 mm 7 mps 767 mmHg 82%
    13:00 +18°C° 0 mm 7 mps 767 mmHg 83%
    14:00 +17°C° 0.1 mm 6 mps 766 mmHg 86%
    15:00 +16°C° 0.1 mm 6 mps 766 mmHg 90%
    16:00 +16°C° 0.1 mm 6 mps 766 mmHg 93%
    17:00 +15°C° 0 mm 6 mps 766 mmHg 95%
    18:00 +15°C° 0 mm 5 mps 765 mmHg 96%
    19:00 +15°C° 0 mm 5 mps 765 mmHg 97%
    20:00 +15°C° 0 mm 5 mps 765 mmHg 97%
    21:00 +15°C° 0 mm 4 mps 765 mmHg 97%
    22:00 +15°C° 0 mm 4 mps 766 mmHg 97%
    23:00 +15°C° 0 mm 4 mps 765 mmHg 97%

    Day after tomorrow, 22 April, Monday

    Time Temperature Precipitation Wind Pressure Humidity
    00:00 +15°C° 0 mm 4 mps 765 mmHg 97%
    01:00 +15°C° 0 mm 4 mps 765 mmHg 97%
    02:00 +14°C° 0 mm 4 mps 765 mmHg 97%
    03:00 +14°C° 0 mm 4 mps 764 mmHg 97%
    04:00 +14°C° 0 mm 4 mps 764 mmHg 97%
    05:00 +14°C° 0 mm 4 mps 764 mmHg 96%
    06:00 +14°C° 0 mm 5 mps 764 mmHg 95%
    07:00 +15°C° 0 mm 5 mps 764 mmHg 94%
    08:00 +16°C° 0 mm 6 mps 764 mmHg 89%
    09:00 +17°C° 0 mm 6 mps 763 mmHg 84%
    10:00 +18°C° 0 mm 7 mps 763 mmHg 79%
    11:00 +20°C° 0 mm 8 mps 763 mmHg 73%
    12:00 +21°C° 0 mm 9 mps 763 mmHg 68%
    13:00 +22°C° 0 mm 9 mps 762 mmHg 63%
    14:00 +19°C° 0 mm 10 mps 762 mmHg 71%
    15:00 +18°C° 0 mm 11 mps 761 mmHg 79%
    16:00 +15°C° 0 mm 12 mps 761 mmHg 86%
    17:00 +15°C° 0.6 mm 12 mps 761 mmHg 88%
    18:00 +14°C° 0.6 mm 12 mps 761 mmHg 89%
    19:00 +14°C° 0.6 mm 11 mps 760 mmHg 90%
    20:00 +14°C° 0 mm 11 mps 760 mmHg 88%
    21:00 +14°C° 0 mm 10 mps 760 mmHg 86%
    22:00 +15°C° 0 mm 9 mps 760 mmHg 84%
    23:00 +15°C° 0 mm 9 mps 760 mmHg 84%

    23 April, Tuesday

    Time Temperature Precipitation Wind Pressure Humidity
    00:00 +14°C° 0 mm 10 mps 760 mmHg 83%
    01:00 +14°C° 0 mm 10 mps 760 mmHg 82%
    02:00 +16°C° 0.2 mm 10 mps 759 mmHg 81%
    03:00 +16°C° 0.2 mm 10 mps 759 mmHg 80%
    04:00 +16°C° 0.2 mm 10 mps 759 mmHg 80%
    05:00 +16°C° 0 mm 10 mps 759 mmHg 76%
    06:00 +17°C° 0 mm 10 mps 759 mmHg 72%
    07:00 +18°C° 0 mm 10 mps 759 mmHg 68%
    08:00 +19°C° 0 mm 11 mps 759 mmHg 63%
    09:00 +21°C° 0 mm 11 mps 759 mmHg 58%
    10:00 +22°C° 0 mm 12 mps 759 mmHg 53%
    11:00 +22°C° 0 mm 12 mps 759 mmHg 54%
    12:00 +22°C° 0 mm 13 mps 759 mmHg 55%
    13:00 +22°C° 0 mm 13 mps 759 mmHg 57%
    14:00 +22°C° 0 mm 13 mps 760 mmHg 58%
    15:00 +22°C° 0 mm 13 mps 760 mmHg 60%
    16:00 +20°C° 0 mm 13 mps 760 mmHg 62%
    17:00 +19°C° 0 mm 12 mps 760 mmHg 64%
    18:00 +18°C° 0 mm 11 mps 761 mmHg 66%
    19:00 +18°C° 0 mm 10 mps 761 mmHg 69%
    20:00 +17°C° 0 mm 10 mps 762 mmHg 68%
    21:00 +17°C° 0 mm 9 mps 762 mmHg 67%
    22:00 +17°C° 0 mm 9 mps 763 mmHg 66%
    23:00 +17°C° 0 mm 8 mps 763 mmHg 66%

    24 April, Wednesday

    Time Temperature Precipitation Wind Pressure Humidity
    00:00 +17°C° 0 mm 7 mps 763 mmHg 65%
    01:00 +16°C° 0 mm 6 mps 762 mmHg 65%
    02:00 +16°C° 0 mm 6 mps 763 mmHg 64%
    03:00 +16°C° 0 mm 5 mps 763 mmHg 63%
    04:00 +17°C° 0 mm 4 mps 763 mmHg 62%
    05:00 +18°C° 0 mm 4 mps 763 mmHg 62%
    06:00 +19°C° 0 mm 4 mps 763 mmHg 61%
    07:00 +21°C° 0 mm 4 mps 763 mmHg 61%
    08:00 +22°C° 0 mm 4 mps 763 mmHg 55%
    09:00 +25°C° 0 mm 3 mps 763 mmHg 49%
    10:00 +27°C° 0 mm 3 mps 763 mmHg 43%
    11:00 +27°C° 0 mm 4 mps 763 mmHg 44%
    12:00 +27°C° 0 mm 5 mps 763 mmHg 44%
    13:00 +28°C° 0 mm 5 mps 763 mmHg 45%
    14:00 +27°C° 0.1 mm 5 mps 763 mmHg 49%
    15:00 +26°C° 0.1 mm 6 mps 763 mmHg 54%
    16:00 +24°C° 0.1 mm 6 mps 762 mmHg 59%
    17:00 +23°C° 0 mm 6 mps 763 mmHg 62%
    18:00 +22°C° 0 mm 6 mps 763 mmHg 65%
    19:00 +20°C° 0 mm 6 mps 763 mmHg 68%
    20:00 +20°C° 0 mm 5 mps 763 mmHg 67%
    21:00 +19°C° 0 mm 5 mps 763 mmHg 67%
    22:00 +19°C° 0 mm 5 mps 764 mmHg 67%
    23:00 +19°C° 0 mm 5 mps 763 mmHg 66%

    25 April, Thursday

    Time Temperature Precipitation Wind Pressure Humidity
    00:00 +19°C° 0 mm 5 mps 763 mmHg 66%
    01:00 +19°C° 0 mm 5 mps 763 mmHg 65%
    02:00 +19°C° 0 mm 5 mps 763 mmHg 65%
    03:00 +18°C° 0 mm 4 mps 763 mmHg 65%
    04:00 +18°C° 0 mm 4 mps 763 mmHg 65%
    05:00 +20°C° 0 mm 4 mps 763 mmHg 65%
    06:00 +21°C° 0 mm 4 mps 763 mmHg 65%
    07:00 +22°C° 0 mm 5 mps 763 mmHg 65%
    08:00 +25°C° 0 mm 5 mps 762 mmHg 58%
    09:00 +26°C° 0 mm 5 mps 762 mmHg 52%
    10:00 +28°C° 0 mm 6 mps 762 mmHg 45%
    11:00 +28°C° 0.1 mm 6 mps 762 mmHg 46%
    12:00 +28°C° 0.1 mm 7 mps 762 mmHg 47%
    13:00 +29°C° 0.1 mm 8 mps 761 mmHg 48%
    14:00 +28°C° 0.1 mm 8 mps 761 mmHg 51%
    15:00 +27°C° 0.1 mm 8 mps 760 mmHg 54%
    16:00 +27°C° 0.1 mm 8 mps 760 mmHg 58%
    17:00 +24°C° 0 mm 9 mps 760 mmHg 62%
    18:00 +23°C° 0 mm 9 mps 760 mmHg 66%
    19:00 +21°C° 0 mm 9 mps 759 mmHg 70%
    20:00 +21°C° 0 mm 10 mps 760 mmHg 69%
    21:00 +21°C° 0 mm 10 mps 760 mmHg 67%
    22:00 +21°C° 0 mm 10 mps 760 mmHg 66%
    23:00 +21°C° 0 mm 10 mps 760 mmHg 64%
    Show more